This demonstration page uses our WeatherBlox Daily Observations layout. Learn more.

Left ArrowRight Arrow

41.86663, -103.66717

Hourly Observations for June 7, 2021

Temp ( °F °C ) Dew Point ( °F °C ) Humidity (%) Winds ( mph kmh ) Pressure ( in mb ) Visibility ( mi km ) Precip ( " mm )
12:53 am 00:53 Clear 67 19.4 53 11.7 61 61 SE 3 6 29.70 1006 10 16 N/A
1:53 am 01:53 Clear 65 18.3 52 11.1 63 63 ESE 3 6 29.68 1005 10 16 N/A
2:53 am 02:53 Clear 63 17.2 49 9.4 60 60 E 3 6 29.67 1005 10 16 N/A
3:53 am 03:53 Clear 60 15.6 50 10 70 70 ESE 8 13 29.66 1004 10 16 N/A
4:53 am 04:53 Clear 58 14.4 50 10 75 75 E 6 9 29.65 1004 10 16 N/A
5:53 am 05:53 Sunny 58 14.4 52 11.1 81 81 ESE 6 9 29.67 1005 10 16 N/A
6:53 am 06:53 Sunny 63 17.2 52 11.1 68 68 ESE 9 15 29.67 1005 10 16 N/A
7:53 am 07:53 Sunny 68 20 52 11.1 57 57 SE 8 13 29.67 1005 10 16 N/A
8:53 am 08:53 Sunny 77 25 52 11.1 42 42 S 10 17 29.66 1004 10 16 N/A
9:53 am 09:53 Sunny 84 28.9 52 11.1 33 33 SE 15 24 29.65 1004 10 16 N/A
10:53 am 10:53 Sunny 83 28.3 50 10 32 32 SSE 14 22 29.65 1004 10 16 N/A
11:53 am 11:53 Sunny 88 31.1 51 10.6 28 28 SSE 14 22 29.65 1004 10 16 N/A
12:53 pm 12:53 Sunny 94 34.4 49 9.4 21 21 SSW 9 15 29.62 1003 10 16 N/A
1:53 pm 13:53 Sunny 94 34.4 44 6.7 18 18 SSW 6 9 29.61 1003 10 16 N/A
2:53 pm 14:53 Sunny 96 35.6 46 7.8 18 18 SSE 9 15 29.60 1002 10 16 N/A
3:53 pm 15:53 Sunny 94 34.4 47 8.3 20 20 SE 13 20 29.60 1002 10 16 N/A
4:53 pm 16:53 Sunny 90 32.2 49 9.4 24 24 S 8 13 29.61 1003 10 16 N/A
5:53 pm 17:53 Sunny 88 31.1 51 10.6 28 28 S 6 9 29.63 1003 10 16 N/A
6:53 pm 18:53 Sunny 85 29.4 47 8.3 27 27 ESE 3 6 29.62 1003 10 16 N/A
7:53 pm 19:53 Mostly Sunny 83 28.3 44 6.7 25 25 ENE 16 26 29.61 1003 10 16 N/A
8:53 pm 20:53 Clear 85 29.4 44 6.7 24 24 undefined N/A 29.66 1004 10 16 N/A
9:53 pm 21:53 Clear 78 25.6 47 8.3 33 33 NE 9 15 29.67 1005 10 16 N/A
10:53 pm 22:53 Clear 75 23.9 51 10.6 43 43 ENE 15 24 29.69 1005 10 16 N/A
11:53 pm 23:53 Clear 73 22.8 49 9.4 43 43 ENE 16 26 29.67 1005 10 16 N/A

Powered by AerisWeather